Location: Quedlinburg
(51.7921°N, 11.1414°E)
Time: 22:30:19
(UTC+02:00)

RS-15 - Pass Details

Date: 14 March 2026
Orbit: 1893 x 2152 km, 64.8° (Epoch: 17 April)

Event Time Altitude Azimuth Distance (km) Brightness Sun altitude
Rises 23:29:02 0° 260° (W) 5,280 10.4 -39.1°
Reaches altitude 10° 23:32:27 10° 266° (W) 4,297 9.9 -39.3°
Maximum altitude 23:43:02 49° 340° (NNW) 2,400 8.6 -39.7°
Drops below altitude 10° 23:54:04 10° 54° (NE) 4,469 10.1 -40.0°
Sets 23:57:44 0° 60° (ENE) 5,506 10.6 -40.1°
